GW3646 Weather Reports


Display with metric or nautical units.
time (UTC)temp
F
wind
direction
speed
MPH
gust
MPH
rain 1hr
in
rain 24hr
in
rain mn
in
humidity
%
barometer
mb
20260509230504 85 139 1.0 8.0 0.00 0.00 0.00 21 1008.2
20260509230014 85 222 1.0 8.0 0.00 0.00 0.00 24 1008.2
20260509225505 86 184 1.0 6.0 0.00 0.00 0.00 23 1008.2
20260509225004 87 299 1.0 6.0 0.00 0.00 0.00 22 1008.1
20260509224520 87 297 1.0 6.0 0.00 0.00 0.00 20 1008.1
20260509224008 87 250 1.0 6.0 0.00 0.00 0.00 21 1008.2
20260509223511 87 246 1.0 9.0 0.00 0.00 0.00 21 1008.2
20260509223026 87 319 0.0 9.0 0.00 0.00 0.00 24 1008.2
20260509222503 87 271 1.0 9.0 0.00 0.00 0.00 21 1008.0
20260509222005 87 250 2.0 7.0 0.00 0.00 0.00 22 1008.0
20260509221507 88 253 1.0 9.0 0.00 0.00 0.00 22 1008.0
20260509221005 87 184 2.0 9.0 0.00 0.00 0.00 21 1007.9
20260509220504 87 261 1.0 8.0 0.00 0.00 0.00 21 1007.9
20260509220013 87 269 2.0 8.0 0.00 0.00 0.00 22 1007.9
20260509215505 87 161 1.0 4.0 0.00 0.00 0.00 20 1007.9
20260509215005 88 257 2.0 6.0 0.00 0.00 0.00 20 1007.9
20260509214518 88 223 0.0 6.0 0.00 0.00 0.00 20 1008.0
20260509214007 88 38 1.0 7.0 0.00 0.00 0.00 19 1008.0
20260509213508 88 223 1.0 7.0 0.00 0.00 0.00 21 1008.0
20260509213020 87 254 1.0 7.0 0.00 0.00 0.00 23 1008.1
20260509212507 87 77 0.0 5.0 0.00 0.00 0.00 21 1008.1
20260509212011 87 266 1.0 7.0 0.00 0.00 0.00 21 1008.3
20260509211548 87 44 0.0 7.0 0.00 0.00 0.00 21 1008.3
20260509211004 87 265 2.0 7.0 0.00 0.00 0.00 21 1008.3
20260509210504 88 276 2.0 7.0 0.00 0.00 0.00 20 1008.4
20260509210008 88 259 2.0 10.0 0.00 0.00 0.00 22 1008.5
20260509205504 87 277 2.0 10.0 0.00 0.00 0.00 22 1008.6
20260509205007 87 252 1.0 9.0 0.00 0.00 0.00 22 1008.6
20260509204513 87 175 2.0 7.0 0.00 0.00 0.00 23 1008.7
20260509204008 87 211 1.0 7.0 0.00 0.00 0.00 21 1008.7
20260509203506 88 242 2.0 7.0 0.00 0.00 0.00 20 1008.8
20260509203034 88 205 1.0 8.0 0.00 0.00 0.00 20 1008.8
20260509202510 88 248 2.0 8.0 0.00 0.00 0.00 22 1008.9
20260509202007 88 239 2.0 8.0 0.00 0.00 0.00 21 1009.0
20260509201524 88 267 2.0 8.0 0.00 0.00 0.00 23 1009.0
20260509201012 88 344 2.0 8.0 0.00 0.00 0.00 22 1009.1
20260509200509 88 130 1.0 8.0 0.00 0.00 0.00 21 1009.2
20260509200026 87 288 2.0 8.0 0.00 0.00 0.00 21 1009.3
20260509195504 87 277 1.0 8.0 0.00 0.00 0.00 20 1009.2
20260509195004 88 261 2.0 5.0 0.00 0.00 0.00 23 1009.4
20260509194511 88 15 1.0 5.0 0.00 0.00 0.00 21 1009.4
20260509194006 88 5 2.0 6.0 0.00 0.00 0.00 21 1009.5
20260509193504 87 327 0.0 8.0 0.00 0.00 0.00 22 1009.5
20260509193016 87 242 2.0 10.0 0.00 0.00 0.00 23 1009.5
20260509192504 87 271 2.0 10.0 0.00 0.00 0.00 22 1009.5
20260509192007 87 289 1.0 7.0 0.00 0.00 0.00 22 1009.6
20260509191521 88 267 1.0 7.0 0.00 0.00 0.00 20 1009.6
20260509191011 87 299 0.0 7.0 0.00 0.00 0.00 21 1009.7
20260509190509 87 193 1.0 9.0 0.00 0.00 0.00 25 1009.7
20260509190023 86 180 1.0 9.0 0.00 0.00 0.00 25 1009.8
20260509185509 86 249 1.0 5.0 0.00 0.00 0.00 22 1009.9
20260509185013 86 312 1.0 6.0 0.00 0.00 0.00 24 1009.9
20260509184527 86 205 1.0 6.0 0.00 0.00 0.00 22 1010.0
20260509184006 85 270 2.0 5.0 0.00 0.00 0.00 22 1010.1
20260509183503 85 352 1.0 5.0 0.00 0.00 0.00 21 1010.0
20260509183021 85 225 2.0 8.0 0.00 0.00 0.00 21 1010.2
20260509182505 85 30 3.0 8.0 0.00 0.00 0.00 22 1010.2
20260509182008 86 310 1.0 8.0 0.00 0.00 0.00 23 1010.2
20260509181518 86 79 1.0 8.0 0.00 0.00 0.00 23 1010.3
20260509181012 85 327 1.0 8.0 0.00 0.00 0.00 23 1010.5
20260509180507 85 17 1.0 10.0 0.00 0.00 0.00 22 1010.6
20260509180024 85 251 2.0 10.0 0.00 0.00 0.00 23 1010.6
20260509175503 85 232 2.0 8.0 0.00 0.00 0.00 24 1010.7
20260509175003 84 74 1.0 8.0 0.00 0.00 0.00 24 1010.7
20260509174508 84 239 2.0 10.0 0.00 0.00 0.00 27 1010.8
20260509174004 84 239 2.0 10.0 0.00 0.00 0.00 25 1010.9
20260509173503 84 339 2.0 8.0 0.00 0.00 0.00 25 1011.0
20260509173012 84 268 2.0 10.0 0.00 0.00 0.00 25 1011.0
20260509172503 83 281 1.0 10.0 0.00 0.00 0.00 26 1011.0
20260509172005 83 79 2.0 9.0 0.00 0.00 0.00 28 1011.0
20260509171516 83 236 2.0 8.0 0.00 0.00 0.00 27 1011.2
20260509171007 82 156 2.0 14.0 0.00 0.00 0.00 27 1011.2
20260509170507 82 252 3.0 14.0 0.00 0.00 0.00 27 1011.4
20260509170022 82 40 1.0 8.0 0.00 0.00 0.00 26 1011.4
20260509165510 82 309 2.0 7.0 0.00 0.00 0.00 27 1011.4
20260509165010 82 121 1.0 7.0 0.00 0.00 0.00 26 1011.4
20260509164523 82 152 2.0 7.0 0.00 0.00 0.00 26 1011.4
20260509164007 82 192 0.0 5.0 0.00 0.00 0.00 29 1011.4
20260509163504 81 242 1.0 8.0 0.00 0.00 0.00 28 1011.4
20260509163008 81 163 2.0 8.0 0.00 0.00 0.00 29 1011.4
20260509162505 81 210 2.0 7.0 0.00 0.00 0.00 31 1011.5
20260509162003 81 240 2.0 7.0 0.00 0.00 0.00 29 1011.5
20260509161516 80 149 0.0 5.0 0.00 0.00 0.00 35 1011.5
20260509161006 80 284 1.0 9.0 0.00 0.00 0.00 33 1011.5
20260509160507 79 139 1.0 9.0 0.00 0.00 0.00 32 1011.4
20260509160016 79 259 1.0 10.0 0.00 0.00 0.00 37 1011.5
20260509155508 79 246 2.0 10.0 0.00 0.00 0.00 34 1011.4
20260509155008 79 258 3.0 8.0 0.00 0.00 0.00 34 1011.3
20260509154522 78 254 1.0 4.0 0.00 0.00 0.00 37 1011.4
20260509154009 77 215 1.0 7.0 0.00 0.00 0.00 38 1011.5
20260509153509 77 281 2.0 7.0 0.00 0.00 0.00 39 1011.5
20260509153026 76 249 1.0 5.0 0.00 0.00 0.00 41 1011.4
20260509152504 76 228 0.0 3.0 0.00 0.00 0.00 46 1011.4
20260509152005 75 221 0.0 3.0 0.00 0.00 0.00 46 1011.4
20260509151508 74 247 0.0 4.0 0.00 0.00 0.00 50 1011.4
20260509151004 73 255 0.0 4.0 0.00 0.00 0.00 51 1011.5
20260509150504 72 207 0.0 5.0 0.00 0.00 0.00 53 1011.5
20260509150015 71 210 1.0 5.0 0.00 0.00 0.00 54 1011.4
20260509145509 71 227 1.0 4.0 0.00 0.00 0.00 58 1011.4
20260509145009 70 232 1.0 4.0 0.00 0.00 0.00 57 1011.3
20260509144518 69 238 0.0 5.0 0.00 0.00 0.00 63 1011.3
20260509144006 68 241 2.0 5.0 0.00 0.00 0.00 61 1011.3
20260509143507 67 268 1.0 5.0 0.00 0.00 0.00 63 1011.4
20260509143028 67 244 1.0 5.0 0.00 0.00 0.00 63 1011.4
20260509142509 66 249 1.0 4.0 0.00 0.00 0.00 64 1011.4
20260509142009 65 256 0.0 3.0 0.00 0.00 0.00 68 1011.4
20260509141530 65 256 0.0 4.0 0.00 0.00 0.00 69 1011.3
20260509141009 64 242 0.0 4.0 0.00 0.00 0.00 68 1011.3
20260509140503 63 250 1.0 4.0 0.00 0.00 0.00 70 1011.3
20260509140013 63 236 0.0 4.0 0.00 0.00 0.00 73 1011.3
20260509135505 62 241 0.0 2.0 0.00 0.00 0.00 74 1011.4
20260509135007 61 281 0.0 5.0 0.00 0.00 0.00 76 1011.3
20260509134516 60 235 0.0 5.0 0.00 0.00 0.00 77 1011.3
20260509134006 59 222 1.0 4.0 0.00 0.00 0.00 79 1011.4
20260509133506 58 292 0.0 4.0 0.00 0.00 0.00 83 1011.4
20260509133020 56 254 1.0 7.0 0.00 0.00 0.00 86 1011.4
20260509132509 55 263 0.0 7.0 0.00 0.00 0.00 89 1011.4
20260509132011 54 30 0.0 4.0 0.00 0.00 0.00 92 1011.4
20260509131530 53 20 0.0 3.0 0.00 0.00 0.00 95 1011.4
20260509131013 52 17 0.0 3.0 0.00 0.00 0.00 96 1011.4
20260509130514 51 23 0.0 3.0 0.00 0.00 0.00 96 1011.3
20260509130026 50 175 0.0 0.0 0.00 0.00 0.00 96 1011.3
20260509125508 49 175 0.0 0.0 0.00 0.00 0.00 96 1011.3
20260509125002 49 175 0.0 0.0 0.00 0.00 0.00 95 1011.2
20260509124514 48 175 0.0 0.0 0.00 0.00 0.00 95 1011.1
20260509124008 47 175 0.0 0.0 0.00 0.00 0.00 95 1011.0
20260509123507 47 175 0.0 0.0 0.00 0.00 0.00 95 1011.0
20260509123020 47 175 0.0 0.0 0.00 0.00 0.00 95 1011.0
20260509122508 46 175 0.0 0.0 0.00 0.00 0.00 94 1010.9
20260509122006 46 175 0.0 0.0 0.00 0.00 0.00 94 1010.9
20260509121527 46 175 0.0 0.0 0.00 0.00 0.00 94 1010.8
20260509121007 46 175 0.0 0.0 0.00 0.00 0.00 94 1010.8
20260509120509 46 175 0.0 0.0 0.00 0.00 0.00 94 1010.8
20260509120027 46 175 0.0 0.0 0.00 0.00 0.00 94 1010.8
20260509115506 46 175 0.0 0.0 0.00 0.00 0.00 93 1010.8
20260509115011 46 175 0.0 0.0 0.00 0.00 0.00 93 1010.7
20260509114526 46 175 0.0 0.0 0.00 0.00 0.00 93 1010.7
20260509114010 46 175 0.0 0.0 0.00 0.00 0.00 93 1010.6
20260509113507 46 175 0.0 0.0 0.00 0.00 0.00 93 1010.5
20260509113016 46 175 0.0 0.0 0.00 0.00 0.00 93 1010.4
20260509112506 46 175 0.0 0.0 0.00 0.00 0.00 93 1010.4
20260509112007 46 175 0.0 0.0 0.00 0.00 0.00 93 1010.3
20260509111518 46 175 0.0 0.0 0.00 0.00 0.00 93 1010.4
20260509111008 46 175 0.0 0.0 0.00 0.00 0.00 93 1010.3
20260509110506 47 175 0.0 0.0 0.00 0.00 0.00 93 1010.2
20260509110024 47 175 0.0 0.0 0.00 0.00 0.00 93 1010.2
20260509105510 47 175 0.0 0.0 0.00 0.00 0.00 93 1010.4
20260509105010 47 175 0.0 0.0 0.00 0.00 0.00 93 1010.4
20260509104526 47 175 0.0 2.0 0.00 0.00 0.00 93 1010.4
20260509104006 47 175 0.0 2.0 0.00 0.00 0.00 93 1010.4
20260509103511 47 122 0.0 2.0 0.00 0.00 0.00 93 1010.4
20260509103025 47 24 0.0 0.0 0.00 0.00 0.00 93 1010.5
20260509102512 47 24 0.0 0.0 0.00 0.00 0.00 93 1010.4
20260509102006 47 24 0.0 0.0 0.00 0.00 0.00 93 1010.5
20260509101520 47 24 0.0 0.0 0.00 0.00 0.00 93 1010.6
20260509101008 47 24 0.0 0.0 0.00 0.00 0.00 93 1010.5
20260509100506 47 24 0.0 0.0 0.00 0.00 0.00 93 1010.6
20260509100021 47 24 0.0 0.0 0.00 0.00 0.00 93 1010.6
20260509095507 46 24 0.0 0.0 0.00 0.00 0.00 93 1010.6
20260509095007 46 24 0.0 0.0 0.00 0.00 0.00 93 1010.6
20260509094523 46 24 0.0 0.0 0.00 0.00 0.00 92 1010.5
20260509094010 47 24 0.0 0.0 0.00 0.00 0.00 93 1010.6
20260509093508 46 24 0.0 0.0 0.00 0.00 0.00 93 1010.4
20260509093028 46 24 0.0 0.0 0.00 0.00 0.00 92 1010.6
20260509092509 46 24 0.0 0.0 0.00 0.00 0.00 92 1010.5
20260509092004 46 24 0.0 0.0 0.00 0.00 0.00 92 1010.6
20260509091526 46 24 0.0 0.0 0.00 0.00 0.00 92 1010.5
20260509091008 47 24 0.0 0.0 0.00 0.00 0.00 92 1010.5
20260509090508 47 24 0.0 0.0 0.00 0.00 0.00 91 1010.6
20260509090020 47 24 0.0 0.0 0.00 0.00 0.00 91 1010.6
20260509085508 47 24 0.0 0.0 0.00 0.00 0.00 91 1010.5
20260509085007 47 24 0.0 0.0 0.00 0.00 0.00 91 1010.5
20260509084516 47 24 0.0 0.0 0.00 0.00 0.00 91 1010.4
20260509084004 47 24 0.0 0.0 0.00 0.00 0.00 91 1010.5
20260509083503 47 24 0.0 0.0 0.00 0.00 0.00 91 1010.6
20260509083008 47 24 0.0 0.0 0.00 0.00 0.00 90 1010.7
20260509082503 47 24 0.0 0.0 0.00 0.00 0.00 90 1010.7
20260509082003 47 24 0.0 0.0 0.00 0.00 0.00 90 1010.7
20260509081511 48 24 0.0 0.0 0.00 0.00 0.00 90 1010.6
20260509081003 48 24 0.0 0.0 0.00 0.00 0.00 90 1010.6
20260509080506 48 24 0.0 0.0 0.00 0.00 0.00 90 1010.6
20260509080024 48 24 0.0 0.0 0.00 0.00 0.00 90 1010.6
20260509075505 48 24 0.0 0.0 0.00 0.00 0.00 91 1010.7
20260509075010 48 24 0.0 0.0 0.00 0.00 0.00 90 1010.6
20260509074522 48 24 0.0 0.0 0.00 0.00 0.00 91 1010.7
20260509074007 48 24 0.0 0.0 0.00 0.00 0.00 91 1010.7
20260509073508 48 24 0.0 0.0 0.00 0.00 0.00 91 1010.7
20260509073041 48 24 0.0 0.0 0.00 0.00 0.00 91 1010.8
20260509072503 48 24 0.0 0.0 0.00 0.00 0.00 90 1010.7
20260509072002 48 24 0.0 0.0 0.00 0.00 0.00 90 1010.7
20260509071506 48 24 0.0 0.0 0.00 0.00 0.00 90 1010.7
20260509071004 48 24 0.0 0.0 0.00 0.00 0.00 89 1010.7
20260509070503 48 24 0.0 0.0 0.00 0.00 0.00 89 1010.6
20260509070016 48 24 0.0 0.0 0.00 0.00 0.00 89 1010.6
20260509065510 48 24 0.0 0.0 0.00 0.00 0.00 88 1010.6
20260509065004 48 24 0.0 0.0 0.00 0.00 0.00 88 1010.7
20260509064518 48 24 0.0 0.0 0.00 0.00 0.00 88 1010.7
20260509064009 48 24 0.0 0.0 0.00 0.00 0.00 86 1010.7
20260509063508 48 24 0.0 0.0 0.00 0.00 0.00 86 1010.7
20260509063028 48 24 0.0 0.0 0.00 0.00 0.00 85 1010.7
20260509062510 48 24 0.0 0.0 0.00 0.00 0.00 85 1010.8
20260509062011 48 24 0.0 0.0 0.00 0.00 0.00 84 1010.8
20260509061526 48 24 0.0 0.0 0.00 0.00 0.00 85 1010.7
20260509061004 48 24 0.0 0.0 0.00 0.00 0.00 84 1010.7
20260509060506 48 24 0.0 0.0 0.00 0.00 0.00 84 1010.6
20260509060015 49 24 0.0 0.0 0.00 0.00 0.00 83 1010.6
20260509055506 49 24 0.0 0.0 0.00 0.00 0.00 83 1010.6
20260509055005 49 24 0.0 0.0 0.00 0.00 0.00 83 1010.6
20260509054527 49 24 0.0 0.0 0.00 0.00 0.00 83 1010.6
20260509054007 49 24 0.0 0.0 0.00 0.00 0.00 83 1010.6
20260509053507 49 24 0.0 0.0 0.00 0.00 0.00 83 1010.6
20260509053020 50 24 0.0 0.0 0.00 0.00 0.00 81 1010.7
20260509052507 50 24 0.0 0.0 0.00 0.00 0.00 81 1010.7
20260509052006 50 24 0.0 0.0 0.00 0.00 0.00 81 1010.7
20260509051524 50 24 0.0 0.0 0.00 0.00 0.00 81 1010.8
20260509051007 50 24 0.0 0.0 0.00 0.00 0.00 81 1010.8
20260509050511 50 24 0.0 0.0 0.00 0.00 0.00 80 1010.8
20260509050036 50 24 0.0 0.0 0.00 0.00 0.00 80 1010.9
20260509045504 51 24 0.0 0.0 0.00 0.00 0.00 79 1010.8
20260509045004 51 24 0.0 0.0 0.00 0.00 0.00 78 1010.9
20260509044514 51 24 0.0 0.0 0.00 0.00 0.00 78 1010.9
20260509044007 51 24 0.0 0.0 0.00 0.00 0.00 77 1010.9
20260509043506 51 24 0.0 0.0 0.00 0.00 0.00 77 1010.9
20260509043033 52 24 0.0 0.0 0.00 0.00 0.00 77 1010.9
20260509042507 52 24 0.0 0.0 0.00 0.00 0.00 77 1010.8
20260509042007 52 24 0.0 0.0 0.00 0.00 0.00 76 1010.8
20260509041522 53 24 0.0 0.0 0.00 0.00 0.00 77 1010.8
20260509041012 53 24 0.0 0.0 0.00 0.00 0.00 76 1010.8
20260509040507 53 24 0.0 0.0 0.00 0.00 0.00 76 1010.8
20260509040025 53 24 0.0 0.0 0.00 0.00 0.00 75 1010.8
20260509035509 54 24 0.0 0.0 0.00 0.00 0.00 75 1010.8
20260509035008 54 24 0.0 0.0 0.00 0.00 0.00 74 1010.7
20260509034528 54 24 0.0 0.0 0.00 0.00 0.00 73 1010.7
20260509034010 55 24 0.0 0.0 0.00 0.00 0.00 73 1010.7
20260509033505 55 24 0.0 0.0 0.00 0.00 0.00 72 1010.6
20260509033012 55 24 0.0 0.0 0.00 0.00 0.00 71 1010.5
20260509032506 56 24 0.0 0.0 0.00 0.00 0.00 70 1010.4
20260509032005 56 24 0.0 0.0 0.00 0.00 0.00 68 1010.4
20260509031521 57 24 0.0 0.0 0.00 0.00 0.00 68 1010.4
20260509031007 57 24 0.0 0.0 0.00 0.00 0.00 67 1010.4
20260509030508 58 24 0.0 0.0 0.00 0.00 0.00 66 1010.4
20260509030033 58 24 0.0 0.0 0.00 0.00 0.00 65 1010.3
20260509025506 59 24 0.0 0.0 0.00 0.00 0.00 64 1010.2
20260509025007 59 24 0.0 0.0 0.00 0.00 0.00 63 1010.2
20260509024526 60 24 0.0 0.0 0.00 0.00 0.00 61 1010.1
20260509024011 60 24 0.0 0.0 0.00 0.00 0.00 60 1010.0
20260509023510 61 24 0.0 0.0 0.00 0.00 0.00 59 1010.0
20260509023029 62 24 0.0 0.0 0.00 0.00 0.00 58 1009.9
20260509022510 63 24 0.0 0.0 0.00 0.00 0.00 56 1009.9
20260509022010 63 24 0.0 0.0 0.00 0.00 0.00 55 1009.8
20260509021519 64 24 0.0 0.0 0.00 0.00 0.00 54 1009.8
20260509021010 65 24 0.0 0.0 0.00 0.00 0.00 52 1009.8
20260509020510 65 24 0.0 0.0 0.00 0.00 0.00 51 1009.7
20260509020020 66 24 0.0 0.0 0.00 0.00 0.00 50 1009.7
20260509015509 67 24 0.0 0.0 0.00 0.00 0.00 48 1009.6
20260509015008 67 24 0.0 0.0 0.00 0.00 0.00 47 1009.5
20260509014528 68 24 0.0 0.0 0.00 0.00 0.00 46 1009.4
20260509014006 69 24 0.0 0.0 0.00 0.00 0.00 44 1009.4
20260509013511 69 24 0.0 1.0 0.00 0.00 0.00 44 1009.2
20260509013043 70 24 0.0 1.0 0.00 0.00 0.00 43 1009.1
20260509012509 70 24 0.0 1.0 0.00 0.00 0.00 43 1009.1
20260509012008 71 24 0.0 3.0 0.00 0.00 0.00 42 1009.0
20260509011528 71 24 0.0 3.0 0.00 0.00 0.00 41 1009.0
20260509011009 71 53 0.0 4.0 0.00 0.00 0.00 41 1009.0
20260509010504 71 62 1.0 4.0 0.00 0.00 0.00 41 1008.9
20260509010024 72 55 1.0 5.0 0.00 0.00 0.00 41 1009.0
20260509005509 72 52 0.0 5.0 0.00 0.00 0.00 41 1008.9
20260509005006 72 44 0.0 4.0 0.00 0.00 0.00 41 1008.9
20260509004538 72 46 1.0 7.0 0.00 0.00 0.00 40 1008.8
20260509004008 73 61 2.0 7.0 0.00 0.00 0.00 40 1008.7
20260509003511 73 70 1.0 8.0 0.00 0.00 0.00 40 1008.6
20260509003032 73 69 3.0 8.0 0.00 0.00 0.00 39 1008.6
20260509002509 73 71 2.0 7.0 0.00 0.00 0.00 39 1008.4
20260509002004 74 98 1.0 13.0 0.00 0.00 0.00 42 1008.3
20260509001510 74 71 3.0 13.0 0.00 0.00 0.00 41 1008.2
20260509001003 74 65 3.0 9.0 0.00 0.00 0.00 41 1008.1
20260509000503 74 48 3.0 9.0 0.00 0.00 0.00 41 1008.1
20260509000010 75 15 3.0 9.0 0.00 0.00 0.00 40 1008.0
20260508235503 75 55 1.0 7.0 0.00 0.00 0.00 40 1008.1
20260508235004 75 81 2.0 8.0 0.00 0.00 0.00 41 1007.9
20260508234510 75 63 3.0 9.0 0.00 0.00 0.00 39 1007.9
20260508234003 76 309 1.0 9.0 0.00 0.00 0.00 38 1007.8
20260508233503 76 30 1.0 9.0 0.00 0.00 0.00 37 1007.8
20260508233003 76 59 3.0 9.0 0.00 0.00 0.00 39 1007.8
20260508232502 77 81 2.0 8.0 0.00 0.00 0.00 40 1007.7
20260508232003 77 5 1.0 8.0 0.00 0.00 0.00 41 1007.7
20260508231508 77 77 2.0 8.0 0.00 0.00 0.00 41 1007.6
20260508231004 77 244 3.0 10.0 0.00 0.00 0.00 41 1007.6